Location: La Brionne
(46.1728°N, 1.7849°E)
Time: 17:07:51
(UTC+00:00)

USA 215 - Pass Details

Date: 01 November 2021
Orbit: 1099 x 1109 km, 123.0° (Epoch: 20 November)

Event Time Altitude Azimuth Distance (km) Brightness Sun altitude
Exits shadow 20:22:50 39° 332° (NNW) 1,601 4.3 -38.9°
Drops below altitude 10° 20:28:09 10° 280° (W) 2,962 6.2 -39.7°
Sets 20:30:47 0° 273° (W) 3,921 6.9 -40.2°
